This demonstration page uses our WeatherBlox Daily Observations layout. Learn more.

Left ArrowRight Arrow

Hourly Observations for May 20, 2019

Temp ( °F °C ) Dew Point ( °F °C ) Humidity (%) Winds ( mph kmh ) Pressure ( in mb ) Visibility ( mi km ) Precip ( " mm )
12:25 am 00:25 Cloudy with Drizzle 50 10 42 5.6 74 74 N 16 26 30.08 1019 10 16 0.00 0.03
12:52 am 00:52 Cloudy 50 10 42 5.6 74 74 N 16 26 30.08 1019 10 16 0.00 0.03
1:52 am 01:52 Cloudy 49 9.4 42 5.6 77 77 NNW 14 22 30.08 1019 10 16 0.00 0.00
2:52 am 02:52 Mostly Cloudy 47 8.3 41 5 80 80 NNW 12 19 30.09 1019 10 16 0.00 0.00
3:52 am 03:52 Mostly Cloudy 46 7.8 39 3.9 77 77 N 13 20 30.11 1020 10 16 0.00 0.00
4:07 am 04:07 Partly Cloudy 45 7.2 39 3.9 80 80 N 12 19 30.12 1020 10 16 0.00 0.00
4:52 am 04:52 Partly Cloudy 44 6.7 39 3.9 83 83 NNE 10 17 30.11 1020 10 16 0.00 0.00
5:49 am 05:49 Mostly Cloudy 45 7 37 3 76 76 NNE 9 15 30.14 1021 10 16 0.00 0.00
5:52 am 05:52 Mostly Cloudy 45 7.2 38 3.3 77 77 NNE 9 15 30.13 1020 10 16 0.00 0.00
6:52 am 06:52 Mostly Cloudy 45 7.2 38 3.3 77 77 NNE 16 26 30.11 1020 10 16 0.00 0.00
7:23 am 07:23 Mostly Cloudy 45 7.2 38 3.3 77 77 NNE 12 19 30.16 1021 10 16 0.00 0.00
7:52 am 07:52 Mostly Cloudy 45 7.2 37 2.8 74 74 NNE 12 19 30.14 1021 10 16 0.00 0.00
8:52 am 08:52 Cloudy 47 8.3 38 3.3 71 71 NNE 10 17 30.16 1021 10 16 0.00 0.00
9:52 am 09:52 Cloudy 48 8.9 38 3.3 68 68 NE 10 17 30.16 1022 10 16 0.00 0.00
10:52 am 10:52 Cloudy 50 10 39 3.9 66 66 NE 14 22 30.15 1021 10 16 0.00 0.00
11:09 am 11:09 Cloudy 50 10 39 3.9 66 66 E 14 22 30.16 1021 10 16 0.00 0.00
11:45 am 11:45 Cloudy 50 10 39 3.9 66 66 E 12 19 30.17 1022 10 16 0.00 0.00
11:52 am 11:52 Cloudy 51 10.6 39 3.9 64 64 E 13 20 30.16 1021 10 16 0.00 0.00
12:52 pm 12:52 Cloudy 54 12.2 40 4.4 59 59 E 10 17 30.16 1022 10 16 0.00 0.00
1:52 pm 13:52 Cloudy 54 12.2 41 5 62 62 E 9 15 30.13 1020 10 16 0.00 0.00
2:14 pm 14:14 Cloudy 54 12.2 41 5 62 62 E 12 19 30.11 1020 10 16 0.00 0.00
2:52 pm 14:52 Mostly Cloudy 55 12.8 40 4.4 57 57 E 14 22 30.10 1019 10 16 0.00 0.00
3:52 pm 15:52 Cloudy 55 12.8 40 4.4 57 57 SE 12 19 30.11 1020 10 16 0.00 0.00
4:52 pm 16:52 Cloudy with Light Rain 54 12.2 42 5.6 64 64 E 9 15 30.09 1019 10 16 0.00 0.03
5:52 pm 17:52 Cloudy 54 12.2 42 5.6 64 64 E 13 20 30.05 1018 10 16 0.00 0.03
6:52 pm 18:52 Cloudy 53 11.7 42 5.6 66 66 E 15 24 29.99 1016 10 16 0.00 0.00
7:52 pm 19:52 Cloudy 54 12.2 42 5.6 64 64 E 16 26 29.98 1015 10 16 0.00 0.00
8:52 pm 20:52 Cloudy 53 11.7 42 5.6 66 66 E 8 13 29.97 1015 10 16 0.00 0.00
9:52 pm 21:52 Cloudy 52 11.1 42 5.6 69 69 E 12 19 29.96 1014 10 16 0.00 0.00
10:52 pm 22:52 Cloudy with Light Rain 52 11.1 43 6.1 72 72 E 17 28 29.94 1014 10 16 0.00 0.03
11:52 pm 23:52 Cloudy with Light Rain 52 11.1 43 6.1 72 72 E 14 22 29.94 1014 10 16 0.00 0.03

Powered by AerisWeather